GEFSNGP_500_meanwind_264.txt.gz
Wind_Speed
28 24 23 23 23 24 26 25 23 21 20 21 21 21 21 19 18 18 18 18 18 17 16 16 16 16 15 14 14 16 16 16 17 17 18 18 19 18 19 19 19 19 19 18
31 26 24 24 24 26 26 24 23 22 23 23 22 22 21 20 20 20 19 19 19 18 18 17 17 17 17 18 17 17 17 18 18 18 19 20 20 20 19 19 20 20 20 19
30 30 27 28 26 26 27 26 25 25 25 24 26 26 24 24 23 21 21 20 19 19 19 19 18 19 19 19 19 19 19 19 20 20 20 21 21 20 20 20 20 20 20 20
28 28 30 28 25 25 28 28 27 28 28 27 28 28 27 25 23 22 22 21 19 20 20 20 20 20 20 21 20 20 21 21 20 21 21 21 21 21 20 21 21 20 21 22
29 29 28 27 26 27 28 29 28 30 29 28 30 30 28 26 24 23 22 21 20 21 21 21 21 22 22 22 22 22 22 22 22 22 21 21 21 21 21 21 21 22 22 23
31 30 28 26 27 27 28 31 29 30 31 31 31 30 28 27 27 27 25 23 22 23 22 22 23 23 23 23 23 23 22 23 23 22 22 22 22 22 22 23 23 23 23 24
31 31 30 28 27 26 28 29 30 30 31 32 31 31 30 29 28 27 26 25 24 25 25 24 23 23 23 23 23 23 23 23 23 22 22 23 23 23 24 24 24 24 24 24
31 31 28 30 29 29 29 29 29 30 32 33 31 30 30 29 29 28 28 26 26 25 25 24 24 24 24 24 24 24 23 23 23 23 24 24 24 24 25 25 24 25 24 24
32 33 33 32 32 32 31 30 30 31 31 30 30 30 31 30 29 29 28 27 26 25 25 25 25 26 25 25 25 25 24 24 24 25 25 25 25 25 25 24 24 24 24 24
33 33 32 33 33 33 33 32 31 31 31 32 32 31 30 30 29 28 28 27 26 27 27 27 27 27 27 27 27 26 26 26 26 26 27 27 26 26 25 24 24 24 25 25
33 33 34 34 34 35 35 33 33 32 32 33 32 32 31 30 28 29 29 29 28 28 28 29 29 28 28 28 27 27 26 26 26 26 26 26 26 26 26 26 26 25 26 26
33 33 34 35 33 33 34 34 33 30 31 32 31 31 31 31 31 31 31 31 31 30 30 30 30 29 29 29 28 27 28 28 28 28 26 26 26 26 27 27 27 26 27 27
33 33 34 35 35 33 33 33 33 32 32 32 31 31 31 31 30 30 31 31 32 32 32 32 31 31 29 29 28 29 29 28 28 28 27 27 27 28 28 28 28 28 27 28
30 31 32 33 33 32 32 33 32 32 33 32 32 31 31 31 31 31 31 31 32 33 33 33 32 31 30 30 29 29 29 29 29 29 29 29 28 29 29 29 28 28 28 28
31 31 30 30 31 30 29 30 31 32 32 32 32 33 32 32 32 32 32 32 33 33 33 33 32 31 30 29 29 29 29 29 29 29 30 30 30 29 29 29 29 28 28 28
29 30 30 29 29 30 30 30 32 32 32 32 32 33 33 33 33 33 32 32 32 33 32 32 32 32 31 30 30 31 31 31 31 31 30 31 31 31 30 30 30 29 28 28
30 29 29 28 27 29 30 30 31 31 31 32 33 32 32 31 32 32 31 31 31 31 31 31 32 32 31 31 31 32 33 32 32 31 31 31 31 31 31 30 30 30 29 29
29 29 29 29 28 28 29 29 30 30 30 32 32 31 31 31 31 31 31 31 32 31 31 32 32 32 32 32 32 33 33 33 34 32 31 32 31 31 31 31 30 30 29 29
26 26 26 27 28 28 28 29 29 30 30 31 31 31 31 31 31 31 31 31 31 31 32 33 32 33 33 34 33 33 34 34 34 34 34 32 31 31 31 31 30 30 30 30
25 25 25 26 27 27 27 28 28 29 30 30 31 31 30 30 30 30 30 31 31 32 33 34 33 33 34 33 33 33 34 34 35 34 34 34 33 31 30 30 30 30 30 30
26 26 26 26 26 26 26 27 28 28 29 29 29 30 30 30 30 30 30 30 31 31 32 31 31 31 31 32 32 32 33 33 33 33 33 32 32 31 30 30 30 30 29 30
26 26 26 26 26 26 26 27 28 28 29 30 30 30 30 30 30 30 30 30 30 30 30 30 29 29 30 31 31 31 31 32 32 31 30 30 30 30 30 29 29 29 30 29
25 25 26 27 26 26 27 27 28 28 29 30 30 30 29 29 29 29 29 29 29 29 29 29 29 29 30 30 30 31 31 31 30 29 29 29 28 28 28 29 28 27 27 27
24 24 25 25 26 26 26 27 27 27 28 29 29 30 29 29 29 29 29 29 29 28 28 29 29 29 30 31 31 30 29 29 29 29 29 28 28 28 28 28 27 26 26 27
23 24 25 25 26 26 26 27 27 27 27 27 27 28 28 29 29 28 29 29 29 28 28 28 28 29 29 29 29 29 28 28 27 27 26 26 26 26 26 25 24 24 25 25
22 22 23 23 23 24 25 26 25 25 26 26 26 27 27 27 27 27 28 28 28 27 27 27 27 27 27 27 27 28 27 27 27 26 26 26 26 26 26 25 25 25 25 25
20 20 21 21 22 23 24 25 25 25 25 25 25 26 26 25 26 26 26 26 26 25 25 25 25 25 25 26 26 26 26 26 26 25 26 26 25 26 25 24 24 24 24 25

GEFSNGP_500_meanwind_270.txt.gz
Wind_Speed
33 32 32 31 28 27 28 28 27 26 24 20 19 19 18 17 16 15 14 13 14 14 13 13 12 12 12 12 12 13 14 14 15 15 15 15 14 15 15 15 15 15 16 15
34 33 33 32 31 29 29 29 29 29 26 23 20 19 19 17 16 16 15 15 15 15 14 15 15 14 14 14 14 15 15 15 15 16 16 16 17 16 16 16 17 17 17 17
34 34 34 33 32 31 29 28 29 28 26 24 23 21 20 18 18 18 18 18 17 16 16 16 17 16 16 16 16 17 16 16 16 17 17 18 18 17 17 17 17 18 18 19
35 35 36 33 31 31 29 28 29 28 26 25 25 23 22 20 20 19 20 19 18 17 17 17 17 17 18 17 17 17 17 17 17 18 19 19 18 18 18 18 18 19 20 20
35 37 37 35 33 31 30 29 29 29 29 28 27 27 25 23 22 21 21 20 20 20 19 18 19 19 19 19 19 18 18 18 19 20 20 20 20 19 20 20 20 20 21 21
34 36 37 35 34 32 32 32 31 31 31 31 29 28 26 25 25 25 24 23 22 21 21 20 20 20 20 20 20 20 20 20 20 21 21 21 21 21 21 21 21 22 22 22
34 35 36 35 33 32 33 33 31 31 30 29 30 28 27 27 28 28 27 25 24 23 22 21 20 21 21 22 22 21 21 21 22 22 22 22 22 22 22 22 23 22 23 23
35 34 33 34 33 32 33 32 31 31 30 29 28 29 29 29 29 28 28 26 26 24 23 22 22 22 22 22 23 23 22 22 23 23 23 22 22 22 22 23 23 23 23 23
34 33 32 31 32 32 32 32 31 31 31 30 29 30 30 30 30 30 28 26 26 25 25 24 24 24 24 24 24 25 25 24 24 24 23 23 23 23 23 23 24 24 24 23
33 32 32 31 30 30 31 32 32 31 31 30 31 31 32 32 32 31 29 28 27 26 25 26 26 26 26 26 26 26 25 25 24 24 24 23 24 24 24 25 25 25 25 25
33 33 33 32 31 30 30 30 30 30 30 31 32 33 33 32 31 31 30 28 27 27 27 27 27 27 28 28 28 27 26 26 25 25 25 26 26 26 26 26 26 26 25 25
32 32 32 31 31 31 30 30 31 31 31 30 31 31 32 32 32 31 31 29 28 28 28 27 27 28 29 28 28 27 27 27 27 27 27 27 27 27 27 27 27 27 26 26
31 31 32 32 32 31 31 30 30 31 31 31 31 31 32 33 33 32 31 29 29 29 29 29 29 29 29 29 29 29 28 28 28 28 28 28 28 28 28 27 27 27 27 26
30 31 32 32 31 31 31 31 31 31 31 32 32 31 32 32 32 32 30 28 28 29 29 30 30 30 29 29 29 29 30 29 29 29 29 29 29 29 28 27 28 28 28 28
29 30 31 32 31 30 30 30 30 30 30 31 31 32 32 32 33 32 31 29 29 29 30 31 31 31 30 29 29 30 30 30 29 29 29 29 29 29 29 29 28 28 28 28
28 29 29 29 30 30 30 30 29 30 30 30 30 30 30 31 31 31 31 30 30 30 30 30 31 31 30 29 29 29 30 30 30 29 29 30 30 29 29 29 29 28 28 28
26 26 26 26 27 27 27 27 27 28 29 29 30 29 29 29 29 29 29 29 29 29 29 30 31 30 30 29 29 29 29 29 28 28 28 28 28 29 29 29 29 29 29 29
23 23 24 24 24 25 25 24 25 25 24 25 27 27 27 27 28 28 27 28 28 29 29 29 29 29 29 29 29 29 28 28 28 28 28 28 29 29 30 30 30 30 30 30
21 22 22 22 23 24 24 23 23 23 24 25 26 27 27 27 27 27 27 27 27 28 28 28 29 28 28 27 28 28 29 29 29 29 29 30 30 31 31 31 31 31 31 31
20 21 22 22 22 23 23 23 23 23 24 24 25 26 27 27 28 28 28 28 29 29 29 29 29 29 28 28 28 29 29 29 29 30 30 30 30 31 32 32 31 31 31 31
18 19 20 22 22 22 22 23 24 24 25 26 26 26 27 27 28 28 28 28 28 29 29 28 28 28 28 28 28 29 29 29 29 30 31 31 31 32 32 32 32 32 32 31
19 19 19 20 21 22 22 22 24 25 26 27 27 27 27 27 27 27 28 28 28 28 28 28 27 28 28 29 29 28 29 29 29 30 30 30 31 31 31 31 31 31 30 29
18 19 18 18 20 21 22 22 22 24 25 26 26 27 27 26 27 27 27 27 27 28 27 27 27 27 28 28 28 28 29 29 29 30 30 29 30 30 30 29 29 29 28 27
19 20 19 18 19 20 20 20 21 22 23 24 25 25 25 25 26 26 27 27 27 27 27 27 27 27 27 27 27 28 28 28 28 29 29 29 29 29 29 28 28 27 27 27
20 20 20 20 21 21 21 21 21 21 22 23 24 24 24 25 25 25 26 26 27 26 26 26 27 27 27 27 27 27 27 27 27 28 28 28 27 27 27 28 28 27 26 26
20 20 20 20 21 22 22 22 22 22 23 23 23 22 22 23 23 24 24 24 25 26 26 26 26 26 26 26 27 26 26 26 26 25 25 25 26 26 26 26 25 25 24 24
19 19 19 20 20 20 20 20 21 22 22 22 22 22 22 22 22 22 23 23 24 24 25 25 25 26 26 25 25 25 25 24 24 24 24 24 24 24 24 23 23 23 24 24

GEFSNGP_500_meanwind_276.txt.gz
Wind_Speed
33 34 35 35 34 33 33 32 30 27 26 23 20 19 17 17 17 17 16 15 15 14 13 12 12 12 12 12 12 12 12 12 13 14 14 15 15 16 16 17 17 17 17 18
33 34 35 36 35 35 34 33 31 28 27 25 23 21 19 19 18 18 17 17 16 15 14 13 13 13 14 14 14 13 13 13 14 15 16 16 16 17 18 18 18 18 18 19
34 33 34 36 34 34 33 32 31 29 27 25 23 22 21 20 19 19 19 19 17 16 16 15 15 15 16 16 15 14 15 15 16 16 17 18 18 18 18 19 19 19 20 20
32 32 35 33 32 32 32 32 31 29 27 26 24 23 23 22 21 21 20 19 19 18 18 18 18 17 17 16 16 16 16 17 17 18 18 19 19 19 20 20 20 20 20 21
33 33 34 33 32 32 32 33 32 30 29 27 26 25 24 23 23 22 21 21 20 20 20 20 20 20 20 20 18 18 18 19 19 20 20 20 19 19 20 20 20 20 21 22
32 33 35 33 32 32 33 33 32 31 30 28 28 27 24 24 23 23 23 22 21 21 21 21 22 22 22 21 20 20 20 20 21 21 20 20 20 20 20 21 21 21 22 23
31 32 33 32 32 32 33 32 31 31 30 30 29 26 25 25 24 24 24 23 23 23 23 22 23 23 23 23 23 23 22 22 22 22 21 22 22 22 22 22 22 23 24 24
31 33 32 30 31 32 32 32 32 32 31 30 29 28 27 26 26 26 25 25 25 25 25 24 25 25 25 25 25 25 24 24 24 24 24 24 24 24 24 24 24 25 25 25
30 31 30 31 31 31 31 32 32 32 32 31 31 30 29 28 27 26 27 27 27 27 27 27 27 27 28 28 27 25 25 26 26 27 27 27 27 26 26 26 26 26 26 26
30 29 29 30 30 30 30 31 31 31 32 32 31 30 30 29 29 28 28 28 29 29 29 30 30 30 30 30 29 27 27 28 29 29 28 28 28 28 28 28 27 27 27 27
31 30 29 29 29 29 28 28 29 29 29 30 30 30 30 30 30 30 31 31 31 31 32 32 32 31 31 30 30 29 29 30 30 30 29 29 29 29 29 29 29 28 28 28
31 30 31 31 30 30 29 29 29 30 29 30 30 31 31 31 31 32 33 33 33 33 32 33 32 32 32 31 31 31 31 31 31 31 30 30 30 30 30 30 30 29 29 29
30 31 31 30 30 30 30 29 30 31 31 30 30 31 31 31 32 31 31 31 31 31 32 32 32 32 32 32 32 32 32 32 31 31 30 30 30 30 30 30 30 30 29 29
29 30 31 31 31 31 30 29 30 30 30 31 31 31 32 33 32 31 31 31 31 32 32 32 33 32 32 33 33 33 33 32 32 31 31 31 31 31 31 31 30 30 30 29
28 29 30 30 31 30 29 29 30 30 30 30 31 32 32 32 33 32 32 32 33 33 33 33 33 32 32 32 32 32 31 31 31 32 32 31 31 31 30 30 31 31 30 29
26 27 28 29 29 30 30 30 30 30 31 31 31 31 31 31 31 31 31 33 33 33 32 32 32 32 32 32 32 31 30 31 31 30 30 30 30 29 30 30 30 30 30 29
24 24 25 27 28 28 29 30 30 29 29 29 30 30 31 31 31 30 31 32 32 32 32 32 31 30 30 30 30 30 30 30 29 28 28 29 29 30 30 30 30 30 29 29
22 23 24 25 26 26 26 27 28 28 28 28 29 29 30 30 30 30 31 31 31 31 30 29 28 28 28 28 28 29 28 28 29 29 29 29 29 29 30 30 30 29 29 29
20 21 22 24 25 25 25 25 26 26 27 27 27 28 29 29 30 30 30 31 31 31 30 29 28 29 29 28 28 29 29 29 29 28 28 29 29 29 29 29 29 29 29 30
19 20 21 22 22 23 23 24 24 25 25 26 27 27 27 27 28 28 30 31 31 30 30 29 29 30 31 31 30 29 29 29 29 29 29 29 29 29 29 29 30 30 30 31
20 20 21 21 21 22 23 24 24 25 26 27 27 27 26 26 26 26 27 28 28 29 29 29 29 29 29 29 28 28 29 29 29 30 30 30 30 30 30 31 31 31 31 32
20 20 20 20 20 21 23 23 24 25 25 26 26 26 26 26 26 26 26 27 27 28 28 27 27 27 28 27 27 28 28 28 29 30 30 30 30 31 31 31 32 32 32 32
19 19 20 20 21 21 22 23 24 24 24 23 23 24 25 24 25 26 26 27 26 26 27 27 26 26 26 27 27 28 28 29 29 30 29 30 30 30 31 31 31 32 32 32
19 20 21 21 21 22 22 23 23 24 24 23 24 24 24 25 26 26 27 27 27 27 27 26 25 26 27 27 27 28 28 29 29 29 29 30 30 30 30 31 31 31 31 31
18 19 20 20 20 21 21 22 22 22 22 22 23 23 24 24 25 26 27 26 26 25 25 25 26 27 27 26 27 27 27 28 28 29 29 29 30 29 29 30 29 29 29 29
17 17 18 18 19 19 20 20 20 20 21 22 22 23 24 24 25 25 26 26 26 26 26 26 26 26 27 27 27 28 28 28 28 28 28 28 29 29 29 28 28 28 28 28
16 16 16 17 18 18 19 20 20 21 21 21 22 22 23 24 24 25 25 25 25 24 25 25 26 26 26 26 27 27 27 28 28 28 28 28 28 27 27 27 28 28 28 27

GEFSNGP_500_meanwind_282.txt.gz
Wind_Speed
31 30 30 31 32 31 31 30 28 26 24 23 22 19 18 17 17 17 16 15 15 15 14 15 15 15 15 15 15 15 15 15 14 14 14 14 14 15 15 16 16 15 15 15
31 31 31 32 32 31 31 31 29 28 27 24 22 21 20 19 18 18 18 17 16 16 16 16 16 16 15 15 16 16 16 16 16 15 16 16 17 17 18 18 18 18 17 16
30 31 31 33 32 32 31 31 30 28 27 25 23 22 21 20 20 19 19 19 18 17 18 18 18 17 16 16 17 17 17 18 18 18 18 19 19 19 20 20 19 19 19 19
29 30 32 33 32 32 32 31 30 29 28 26 24 23 22 21 20 20 20 20 20 19 19 19 19 18 18 18 19 19 19 19 19 19 20 20 20 21 21 21 21 20 19 19
30 30 30 31 32 32 31 31 30 29 28 26 24 23 23 22 21 21 20 20 20 21 21 21 21 21 20 20 21 21 21 20 20 21 21 22 23 22 22 21 21 20 19 20
29 27 27 28 29 29 29 30 29 29 27 26 26 26 24 23 23 22 21 21 22 22 22 22 22 22 22 23 22 22 22 22 22 22 22 23 24 23 23 22 22 22 21 21
28 27 26 27 27 27 28 29 28 28 28 28 27 27 25 24 24 24 22 22 23 23 24 24 24 24 24 23 22 22 23 23 23 24 25 25 24 23 24 24 24 24 23 23
27 27 27 27 27 28 27 27 26 26 27 27 28 28 26 25 24 24 24 24 24 24 25 25 25 25 25 25 24 24 25 25 25 24 25 25 24 25 25 25 26 25 25 25
28 28 28 28 28 27 26 26 26 26 27 27 28 28 27 27 26 26 26 26 26 26 27 27 27 27 27 26 26 26 27 27 26 26 26 26 26 26 26 27 27 26 26 26
28 28 28 28 28 27 26 26 26 27 27 27 27 27 27 28 28 27 27 27 27 28 28 28 29 29 29 28 28 29 29 29 28 28 28 28 27 27 28 28 28 27 27 27
28 28 28 28 28 28 28 27 28 28 28 27 27 27 27 28 29 29 29 29 29 30 30 30 30 31 31 30 30 30 30 30 30 30 30 29 29 29 29 29 28 28 27 28
27 27 28 28 28 28 29 28 28 28 28 27 27 27 28 29 30 30 30 30 31 31 32 32 32 32 31 31 32 32 31 31 31 32 32 31 31 30 30 30 29 29 29 29
27 28 29 29 28 28 28 28 28 28 28 27 27 28 29 29 30 30 30 30 31 31 32 32 32 32 32 32 33 32 31 32 32 33 32 32 31 31 31 30 30 30 31 31
26 27 27 28 28 28 28 27 27 28 27 27 28 28 28 29 29 29 29 30 30 31 32 32 32 32 33 34 34 34 33 33 33 33 33 34 33 33 32 32 31 31 32 32
26 27 27 27 27 28 28 27 27 27 27 27 27 27 27 28 28 28 29 30 31 32 33 33 32 33 33 34 34 34 33 33 34 34 34 34 34 34 34 33 32 32 32 32
25 25 25 26 27 28 28 28 28 28 28 27 27 27 27 28 28 28 28 29 30 31 32 32 32 33 34 34 34 34 34 34 34 34 34 34 35 35 35 34 33 32 32 32
23 22 23 24 25 25 26 27 27 27 27 27 27 28 28 28 29 29 30 30 31 31 32 32 32 32 33 33 32 33 33 34 34 34 34 34 34 34 33 32 32 31 32 32
20 21 20 21 23 24 25 26 26 27 27 27 27 28 29 29 29 30 30 31 31 31 31 31 31 32 32 33 33 32 32 33 33 34 34 33 32 32 31 32 32 32 31 31
20 21 21 21 23 24 25 26 26 26 26 26 27 27 28 29 29 29 30 31 31 32 32 33 33 33 33 33 33 33 33 33 33 33 33 33 32 32 32 32 32 32 32 31
18 19 20 21 21 22 23 25 25 26 26 26 26 27 28 28 29 30 31 31 32 33 33 33 33 32 32 33 32 32 32 32 32 32 32 32 32 32 32 32 32 32 31 31
17 18 18 20 21 21 21 22 23 24 25 25 26 27 27 27 28 29 30 31 31 31 31 32 32 32 32 31 30 30 30 30 31 31 32 32 31 32 32 32 32 32 32 32
16 18 19 19 20 20 20 20 21 22 23 24 25 25 25 26 27 28 28 29 29 29 30 30 30 29 29 30 31 30 30 30 31 31 31 30 31 31 31 31 32 32 31 31
17 18 18 18 19 19 20 20 21 21 22 23 24 25 25 26 27 28 28 28 29 29 30 30 29 29 29 29 29 29 29 30 30 30 30 29 29 30 30 30 31 31 30 30
17 17 18 18 18 19 19 20 21 22 22 23 23 24 25 26 26 27 28 29 29 30 30 30 30 30 29 29 28 28 29 29 29 29 30 29 29 29 29 29 30 30 30 30
16 16 17 18 19 19 20 21 21 21 22 22 22 23 23 25 26 26 27 27 28 28 29 29 29 29 28 28 28 28 28 29 29 29 29 29 28 28 29 29 29 30 30 29
15 15 16 16 17 17 18 19 19 19 20 21 21 22 22 23 23 24 24 25 26 26 26 27 27 27 27 27 27 27 27 28 28 28 29 28 28 28 28 28 28 29 29 29
14 15 15 16 17 17 17 17 18 19 20 21 21 22 22 23 23 24 24 25 25 25 25 26 26 27 27 28 27 27 27 28 28 28 28 28 28 29 28 28 28 28 28 28

GEFSNGP_500_meanwind_288.txt.gz
Wind_Speed
26 24 24 26 26 26 27 27 26 25 24 24 23 22 20 20 19 19 19 18 18 18 17 17 17 17 16 15 14 14 13 13 14 14 15 15 16 16 16 16 16 16 17 17
28 25 24 25 26 27 27 27 27 26 26 25 24 25 23 21 21 21 21 20 20 20 20 19 19 18 17 17 16 16 15 15 15 15 16 16 17 17 17 17 17 17 18 18
28 26 26 27 27 26 26 26 28 29 29 27 28 26 23 23 23 23 23 22 21 21 21 20 20 20 18 18 17 16 16 17 17 18 18 18 18 18 19 19 19 20 20 20
28 27 29 27 26 26 27 28 29 29 29 27 27 25 25 25 24 23 23 23 22 22 22 21 21 21 21 20 19 18 18 19 19 19 19 20 19 20 21 22 22 22 22 22
27 27 27 25 27 27 26 27 28 29 28 29 29 28 27 26 25 24 24 24 24 24 23 22 22 22 21 21 20 20 20 20 20 20 21 21 22 22 22 23 23 23 23 23
28 27 26 26 27 26 27 28 29 29 29 28 27 27 26 26 26 26 26 26 26 25 24 23 22 22 22 21 22 22 22 22 22 22 23 23 24 25 25 25 25 24 24 24
28 28 27 26 27 27 28 28 29 29 29 28 27 27 27 26 26 26 26 25 25 24 23 23 22 22 22 22 23 23 24 24 24 25 25 25 26 26 27 26 26 25 25 25
29 29 29 28 27 28 27 27 29 30 30 29 28 28 27 26 26 26 26 25 24 24 24 23 23 23 23 24 25 25 26 25 26 27 28 28 28 28 27 27 27 26 26 26
30 31 32 30 30 29 29 29 28 28 29 29 28 28 28 27 26 26 26 25 25 26 25 24 24 25 26 26 27 27 27 27 27 28 29 29 29 28 28 28 28 27 27 27
30 31 31 30 28 29 29 28 28 28 28 29 28 27 27 27 27 27 26 26 26 26 27 27 27 27 27 27 27 27 27 28 28 29 29 29 30 29 29 29 29 28 28 28
29 29 29 30 29 28 28 28 28 28 28 28 28 28 28 28 28 27 28 27 27 27 28 28 29 29 28 28 28 28 28 29 28 29 30 30 30 31 31 30 29 30 30 29
27 27 26 27 27 28 28 27 28 28 28 29 29 29 29 29 29 29 29 28 28 29 30 30 30 30 30 29 29 29 29 29 30 30 31 30 31 31 31 31 31 31 31 31
26 26 27 26 26 27 28 28 28 28 28 28 29 30 29 29 29 29 29 29 30 30 31 31 31 31 31 30 30 30 31 30 30 30 30 31 32 32 32 33 33 34 34 33
26 26 27 27 26 28 29 30 30 30 29 29 30 30 30 30 29 30 30 30 31 32 32 32 31 31 31 31 31 31 31 31 31 31 32 32 33 33 34 35 35 35 35 35
25 25 27 28 29 29 29 29 30 30 30 30 29 30 30 30 30 31 31 31 31 31 32 31 31 30 31 32 32 32 31 32 32 32 32 33 33 34 35 36 36 35 34 34
25 26 26 27 27 27 28 29 30 30 30 30 29 29 30 30 30 30 30 31 31 31 31 32 32 31 32 32 33 33 33 33 33 33 34 34 35 36 36 36 35 34 33 34
23 24 26 27 27 27 27 28 28 29 29 29 29 30 31 30 30 30 31 31 31 31 32 32 32 32 32 32 33 33 33 33 33 34 34 35 35 36 36 36 35 34 34 33
23 23 23 24 24 25 26 27 27 28 29 29 29 29 30 30 30 31 31 31 31 31 32 32 33 33 32 32 32 32 32 33 34 34 34 34 35 36 36 36 35 34 34 34
21 22 22 22 22 24 25 26 26 26 27 28 29 29 30 30 30 30 31 31 32 33 33 33 33 33 32 33 33 33 33 33 32 32 32 33 34 35 36 36 36 36 35 34
20 20 21 21 22 23 23 23 24 26 27 27 28 29 30 30 30 31 31 31 31 32 33 33 33 33 33 33 34 34 33 33 33 33 34 34 35 35 36 36 36 36 35 35
18 19 20 21 21 22 22 22 23 24 24 26 27 28 28 29 30 31 31 31 32 32 32 32 32 32 33 33 33 33 33 33 34 34 34 35 35 35 36 36 35 35 35 35
17 18 18 19 20 21 21 22 23 24 24 25 26 27 28 29 29 29 30 30 30 31 31 32 32 33 33 32 32 33 33 34 35 35 35 34 34 34 34 33 33 34 34 34
16 17 18 18 19 19 20 21 22 23 24 24 25 25 26 27 27 27 27 28 28 28 29 30 30 30 30 31 32 33 33 33 33 33 34 34 33 33 32 32 32 32 33 33
16 16 17 17 18 18 19 20 21 22 23 24 24 24 24 25 26 27 27 27 26 26 27 27 28 29 30 31 32 32 32 32 32 32 32 32 32 32 32 31 31 31 32 33
14 15 16 17 17 17 18 19 20 21 22 22 23 23 24 24 24 24 25 25 25 26 26 26 27 29 30 31 31 32 32 32 32 32 32 31 31 31 32 32 32 32 32 32
14 15 16 17 17 18 18 19 19 20 20 21 21 22 22 22 22 23 23 24 24 25 26 27 28 29 29 30 31 31 32 32 33 33 33 32 32 32 32 31 31 32 32 32
14 15 15 16 17 18 18 18 18 18 18 19 20 21 21 22 22 22 22 23 24 25 26 27 28 29 30 30 31 31 32 32 32 32 32 32 31 31 30 30 31 31 31 31